TimeEDT,TemperatureF,Dew PointF,Humidity,Sea Level PressureIn,VisibilityMPH,Wind Direction,Wind SpeedMPH,Gust SpeedMPH,PrecipitationIn,Events,Conditions,WindDirDegrees,DateUTC
12:56 AM,62.1,60.1,93,30.15,10.0,Calm,Calm,-,N/A,,Clear,0,2013-04-09 04:56:00
1:56 AM,61.0,60.1,97,30.13,9.0,Calm,Calm,-,N/A,,Clear,0,2013-04-09 05:56:00
2:56 AM,60.1,59.0,96,30.12,7.0,Calm,Calm,-,N/A,,Clear,0,2013-04-09 06:56:00
3:56 AM,57.9,57.0,97,30.10,9.0,Calm,Calm,-,N/A,,Clear,0,2013-04-09 07:56:00
4:56 AM,57.9,57.0,97,30.11,6.0,Calm,Calm,-,N/A,,Clear,0,2013-04-09 08:56:00
5:56 AM,57.0,55.9,96,30.13,7.0,Calm,Calm,-,N/A,,Clear,0,2013-04-09 09:56:00
6:56 AM,55.9,55.0,97,30.15,9.0,ENE,3.5,-,N/A,,Partly Cloudy,70,2013-04-09 10:56:00
7:56 AM,59.0,57.9,96,30.18,10.0,Calm,Calm,-,N/A,,Scattered Clouds,0,2013-04-09 11:56:00
8:56 AM,64.9,64.0,97,30.19,10.0,Calm,Calm,-,N/A,,Mostly Cloudy,0,2013-04-09 12:56:00
9:56 AM,69.1,66.0,90,30.20,10.0,SSE,3.5,-,N/A,,Scattered Clouds,160,2013-04-09 13:56:00
10:56 AM,72.0,64.0,76,30.21,10.0,Variable,4.6,-,N/A,,Scattered Clouds,0,2013-04-09 14:56:00
11:56 AM,78.1,63.0,60,30.20,10.0,SE,11.5,-,N/A,,Mostly Cloudy,140,2013-04-09 15:56:00
12:56 PM,80.1,62.1,54,30.19,10.0,SE,10.4,-,N/A,,Mostly Cloudy,130,2013-04-09 16:56:00
1:56 PM,81.0,61.0,50,30.18,10.0,SSE,11.5,19.6,N/A,,Mostly Cloudy,150,2013-04-09 17:56:00
2:56 PM,80.1,61.0,52,30.16,10.0,SE,10.4,19.6,N/A,,Mostly Cloudy,130,2013-04-09 18:56:00
3:56 PM,80.1,60.1,50,30.15,10.0,SE,8.1,17.3,N/A,,Mostly Cloudy,130,2013-04-09 19:56:00
4:56 PM,80.1,59.0,48,30.14,10.0,SE,11.5,-,N/A,,Mostly Cloudy,140,2013-04-09 20:56:00
5:56 PM,78.1,61.0,56,30.14,10.0,ESE,11.5,-,N/A,,Mostly Cloudy,120,2013-04-09 21:56:00
6:56 PM,75.0,60.1,60,30.14,10.0,ESE,10.4,-,N/A,,Mostly Cloudy,120,2013-04-09 22:56:00
7:56 PM,72.0,59.0,64,30.15,10.0,SE,8.1,-,N/A,,Mostly Cloudy,130,2013-04-09 23:56:00
8:56 PM,71.1,59.0,66,30.16,10.0,SE,6.9,-,N/A,,Scattered Clouds,130,2013-04-10 00:56:00
9:56 PM,69.1,60.1,73,30.18,10.0,SE,5.8,-,N/A,,Scattered Clouds,130,2013-04-10 01:56:00
10:56 PM,64.0,59.0,84,30.17,10.0,SE,4.6,-,N/A,,Clear,140,2013-04-10 02:56:00
11:56 PM,64.9,60.1,84,30.16,10.0,SSE,3.5,-,N/A,,Clear,150,2013-04-10 03:56:00